Location: Christchurch
(43.5000°S, 172.6000°E)
Time: 16:18:59
(UTC+12:00)

ISS - Visible Passes

Search period start: 28 July 2021 00:00
Search period end: 07 August 2021 00:00
Orbit: 419 x 421 km, 51.6° (Epoch: 28 July)

Date Brightness Start Highest point End Pass type
(mag) Time Alt. Az. Time Alt. Az. Time Alt. Az.
28 Jul -0.9 05:10:34 16° SE 05:10:34 16° SE 05:11:21 10° SE visible
28 Jul -2.2 06:43:33 17° SW 06:45:12 23° S 06:48:02 10° SE visible
29 Jul -2.2 05:58:12 26° S 05:58:12 26° S 06:00:44 10° SE visible
30 Jul -0.8 05:12:50 14° SE 05:12:50 14° SE 05:13:30 10° SE visible
30 Jul -1.9 06:45:49 13° SW 06:47:52 20° S 06:50:32 10° SE visible
31 Jul -1.9 06:00:26 21° S 06:00:26 21° S 06:03:09 10° SE visible
01 Aug -0.9 05:15:05 14° SE 05:15:05 14° SE 05:15:51 10° SE visible
01 Aug -2.0 06:48:03 11° SW 06:50:40 23° S 06:53:30 10° ESE visible
02 Aug -1.9 06:02:43 20° S 06:03:17 21° S 06:06:01 10° ESE visible
03 Aug -1.1 05:17:24 16° SE 05:17:24 16° SE 05:18:37 10° SE visible
03 Aug -2.5 06:50:23 11° SW 06:53:29 34° SSE 06:56:40 10° E visible
04 Aug -2.1 06:05:07 22° SSW 06:06:14 27° SSE 06:09:14 10° ESE visible
05 Aug -1.5 05:19:54 21° SE 05:19:54 21° SE 05:21:50 10° ESE visible
05 Aug -3.5 06:52:54 10° SW 06:56:16 69° SSE 06:59:41 10° ENE visible
06 Aug -3.0 06:07:44 28° SSW 06:09:09 47° SSE 06:12:30 10° E visible
